Regional Weather Roundup
Issued by NWS Huntsville, AL

Home | Current Version | Previous Version | Text Only | Print | Product List | Glossary On
Versions: 1 2 3 4 5 6 7 8 9 10 11 12 13 14 15 16 17 18 19 20 21 22 23 24 25 26 27 28 29 30 31 32 33 34 35 36 37 38 39 40 41 42 43 44 45 46 47 48 49 50
000
ASUS44 KHUN 070610
RWRHUN

WEATHER ROUNDUP FOR THE TENNESSEE VALLEY
NATIONAL WEATHER SERVICE HUNTSVILLE AL
1200 AM CST SUN FEB 07 2016

ALZ001>004-070700-
NORTHWEST ALABAMA

CITY           SKY/WX    TMP DP  RH WIND       PRES   REMARKS
COURTLAND HCN    N/A     30 N/A N/A CALM        N/A
RUSSELLVILLE     N/A     27 N/A N/A MISG        N/A
SHOALS AIRPORT CLEAR     33  26  75 CALM      30.29F
6HR MIN TEMP:  32; 6HR MAX TEMP:  44;

SHOALS TVA RES   N/A     30 N/A N/A MISG        N/A
$$

ALZ005>007-016-070700-
NORTH CENTRAL ALABAMA

CITY           SKY/WX    TMP DP  RH WIND       PRES   REMARKS
CULLMAN AG STN   N/A     28 N/A N/A MISG        N/A
DECATUR AP     CLEAR     31  28  89 NW3       30.28F
6HR MIN TEMP:  31; 6HR MAX TEMP:  40;

HUNTSVILLE AP  PTCLDY    33  26  75 CALM      30.27F
6HR MIN TEMP:  33; 6HR MAX TEMP:  45;

HUN NWS/UAH      N/A     35  23  62 CALM        N/A
MERIDIANVILLE  CLEAR     32  28  86 CALM      30.27S
REDSTONE ARSN  CLEAR     31  24  74 MISG      30.26F
VINEMONT AP    FAIR      28  22  76 CALM      30.27F
$$

ALZ008>010-070700-
NORTHEAST ALABAMA

CITY           SKY/WX    TMP DP  RH WIND       PRES   REMARKS
ALBERTVILLE    CLEAR     36  28  75 N6        30.23F WCI  31
FORT PAYNE     CLEAR     28  21  74 CALM      30.24F
SCOTTSBORO AP  PTCLDY    30  27  86 CALM      30.27S
SCOTTSBORO HCN   N/A     28 N/A N/A MISG        N/A
VALLEY HEAD      N/A     27 N/A N/A MISG        N/A
$$

TNZ076-096-097-070700-
SOUTHEASTERN MIDDLE TENNESSEE

CITY           SKY/WX    TMP DP  RH WIND       PRES   REMARKS
TULLAHOMA        N/A     28  25  86 CALM      30.25F
WINCHESTER     CLEAR     30  27  86 CALM      30.26S
$$

...SURROUNDING SITES...

CITY           SKY/WX    TMP DP  RH WIND       PRES   REMARKS
ATLANTA        CLEAR     34  21  59 NW9       30.18F WCI  27
ANNISTON       PTCLDY    28  24  85 CALM      30.25F
BIRMINGHAM     CLEAR     32  25  75 CALM      30.28F
CHATTANOOGA    CLEAR     34  25  69 CALM      30.25F
DALTON         NOT AVBL
GADSDEN        CLEAR     28  25  88 CALM      30.26F
GOLDEN TRNGL   PTCLDY    34  25  69 NW3       30.28F
HALEYVILLE     FAIR      29  25  85 CALM      30.28F
JACKSON TN     CLEAR     27  24  89 CALM      30.29F
MEMPHIS        PTCLDY    36  22  56 SE3       30.28F
NASHVILLE      CLEAR     34  24  67 CALM      30.27F
ROME           CLEAR     33  21  61 NW3       30.23F
TUPELO         CLEAR     32  26  78 CALM      30.29F
TUSCALOOSA     CLEAR     34  22  61 CALM      30.28F
$$

...GULF COAST WEATHER...

CITY           SKY/WX    TMP DP  RH WIND       PRES   REMARKS
GULFPORT       CLEAR     39  31  72 CALM      30.28S
PASCAGOULA     CLEAR     34  32  92 CALM      30.28R
MOBILE         CLEAR     39  25  57 NW6       30.26S WCI  35
GULF SHORES    PTCLDY    40  25  53 NW3       30.24S
PENSACOLA      PTCLDY    40  28  62 NW5       30.22F
DESTIN         CLEAR     47  26  44 N8        30.21S
PANAMA CITY    CLOUDY    44  37  74 N5        30.19F
APPALACHICOLA  CLOUDY    46  36  68 CALM      30.17F
$$




USA.gov is the U.S. government's official web portal to all federal, state and local government web resources and services.